Showing default

ESSA 4 (TOS-B), 2657

Orbit data source: Space-Track

ESSA 4 (TOS-B), 2657 is a payload satellite owned by ESSA (US) in SSO that was launched on Thu, 26 Jan 1967 UTC via a THOR DELTA E launch vehicle from the Air Force Western Test Range (AFWTR). Payloads include a variety of satellites, spacecraft, and rockets equipped with specific instruments for various scientific and technological missions. These include communications satellites like Starlink; space stations such as the ISS; scientific satellites like the Hubble; Earth observation satellites from companies like Planet Labs, Umbra, and HawkEye 360; GPS; miniature CubeSats for education and research; and military/defense satellites.

Loading next visibility...
ESSA 4 (TOS-B) details
Identifier
2657, 1967-006A
Orbit
SSO
Last TLE update1 day ago
Origin
Flag of USESSA (US)
ManufacturerRCA/East Windsor
MissionNon-operational Civil Weather
Bus & MotorTIROS I, Unknown motor
Mass132 kg wet, 132 kg dry
Launch date (UTC)
1967-01-26 (58 years ago)
Launch vehicle
THOR DELTA E
Launch site
Air Force Western Test Range (AFWTR)
Object type
Payload
Rocket body
Debris
Shape & HBRCyl, 1.1 m
Radar Cross Section0.994 m², Medium (>0.1 m² and < 1m²)

Expand to show TLE details & history

TLE from 1 day ago
0 ESSA 4 (TOS-B)
1 02657U 67006A   25022.44436718 -.00000026  00000-0  11775-3 0  9990
2 02657 102.0657 190.8816 0073091 199.7716 184.6118 12.69879030687719
Epoch: 2025-01-22T10:39Z
Definitive object data (Epoch: 2025-01-22T10:39:53.324Z)
Latitude23.76909°
Longitude-96.50191°
Altitude1,441.567 km
Speed7.117 km/s
True Right ascension12h 22m 01s
True Declination23° 39' 13"
Sunlit
Object was in daylight at TLE epoch
Visualization TLE readout
Latitude15.25582°
Longitude93.3858°
Altitude1,336.733 km
Speed7.213 km/s
Apparent Right ascension01h 50m 04s
Apparent Declination-9° 45' 56"
Sunlit
Object is in daylight
Visualization observer readout
Local Sidereal Time15:04:31
Azimuth33.837° NE
Elevation-55.606°
Doppler factor1
Orbital elements
Apogee altitude1,436.677 km
Perigee altitude1,323.268 km
Semi-major axis7,758.109 km
Eccentricity0.0073091
Inclination102.0657°
RAAN190.8816°
Arg. of periapsis199.7716°
True anomaly184.54506°
Mean anomaly184.6118°
Eccentric anomaly184.57837°
Mean motion3.17621 °/min
BSTAR0.00011775
Orbital period113.34 mins
Loading maneuver chart data...
Loading historical data...
Loading historical data...
Loading historical data...
Loading historical data...
Loading historical data...
Loading historical data...
Loading historical data...
Other satellites on launch #6 in the year 1967 (1967-01-26 UTC)

ESSA 4 (TOS-B) Visibility forecast

Observer location: undefined°, undefined

Span
Click to sort rows by Start time (UTC) header in descending order
Start Az.
Max El. time (UTC)
Max El. Az.
Max El.
End time (UTC)
End Az.
13 mins2025-01-23 23:06:22.797Z37.984° NE2025-01-23 23:12:22.797Z95.091° ESE30.251°2025-01-23 23:19:22.797Z162.161° S
12 mins2025-01-24 00:58:22.797Z1.947° NNE2025-01-24 01:04:22.797Z289.312° WNW36.603°2025-01-24 01:10:22.797Z228.716° WSW
13 mins2025-01-24 09:56:22.797Z127.179° SE2025-01-24 10:02:22.797Z67.475° ENE35.618°2025-01-24 10:09:22.797Z356.069° N
14 mins2025-01-24 11:47:22.797Z196.01° SSW2025-01-24 11:54:22.797Z267.798° W32.97°2025-01-24 12:01:22.797Z327.588° NNW
|